Year,Month,Day,Hour,Minute,Value (Times are PST for temperature in C)
2008,09,30,00,00,12.20
2008,09,30,00,01,12.20
2008,09,30,00,02,12.30
2008,09,30,00,03,12.30
2008,09,30,00,04,12.40
2008,09,30,00,05,12.50
2008,09,30,00,06,12.60
2008,09,30,00,07,12.80
2008,09,30,00,08,12.80
2008,09,30,00,09,12.90
2008,09,30,00,10,13.10
2008,09,30,00,11,13.30
2008,09,30,00,12,13.50
2008,09,30,00,13,13.60
2008,09,30,00,14,13.90
2008,09,30,00,15,14.00
2008,09,30,00,16,14.10
2008,09,30,00,17,14.10
2008,09,30,00,18,14.20
2008,09,30,00,19,14.20
2008,09,30,00,20,14.30
2008,09,30,00,21,14.40
2008,09,30,00,22,14.40
2008,09,30,00,23,14.50
2008,09,30,00,24,14.60
2008,09,30,00,25,14.70
2008,09,30,00,26,14.80
2008,09,30,00,27,14.80
2008,09,30,00,28,15.00
2008,09,30,00,29,15.00
2008,09,30,00,30,15.00
2008,09,30,00,31,15.00
2008,09,30,00,32,15.10
2008,09,30,00,33,15.20
2008,09,30,00,34,15.20
2008,09,30,00,35,15.20
2008,09,30,00,36,15.20
2008,09,30,00,37,15.20
2008,09,30,00,38,15.20
2008,09,30,00,39,15.20
2008,09,30,00,40,15.10
2008,09,30,00,41,15.10
2008,09,30,00,42,15.10
2008,09,30,00,43,15.10
2008,09,30,00,44,15.20
2008,09,30,00,45,15.20
2008,09,30,00,46,15.30
2008,09,30,00,47,15.30
2008,09,30,00,48,15.30
2008,09,30,00,49,15.30
2008,09,30,00,50,15.30
2008,09,30,00,51,15.30
2008,09,30,00,52,15.30
2008,09,30,00,53,15.30
2008,09,30,00,54,15.30
2008,09,30,00,55,15.30
2008,09,30,00,56,15.30
2008,09,30,00,57,15.20
2008,09,30,00,58,15.20
2008,09,30,00,59,15.20
2008,09,30,01,00,15.20
2008,09,30,01,01,15.20
2008,09,30,01,02,15.30
2008,09,30,01,03,15.30
2008,09,30,01,04,15.30
2008,09,30,01,05,15.30
2008,09,30,01,06,15.30
2008,09,30,01,07,15.30
2008,09,30,01,08,15.30
2008,09,30,01,09,15.40
2008,09,30,01,10,15.40
2008,09,30,01,11,15.40
2008,09,30,01,12,15.40
2008,09,30,01,13,15.40
2008,09,30,01,14,15.50
2008,09,30,01,15,15.60
2008,09,30,01,16,15.70
2008,09,30,01,17,15.80
2008,09,30,01,18,15.80
2008,09,30,01,19,15.80
2008,09,30,01,20,15.80
2008,09,30,01,21,15.80
2008,09,30,01,22,15.80
2008,09,30,01,23,15.80
2008,09,30,01,24,15.80
2008,09,30,01,25,15.80
2008,09,30,01,26,15.80
2008,09,30,01,27,15.70
2008,09,30,01,28,15.70
2008,09,30,01,29,15.70
2008,09,30,01,30,15.70
2008,09,30,01,31,15.70
2008,09,30,01,32,15.70
2008,09,30,01,33,15.70
2008,09,30,01,34,15.70
2008,09,30,01,35,15.80
2008,09,30,01,36,15.80
2008,09,30,01,37,15.80
2008,09,30,01,38,15.80
2008,09,30,01,39,15.80
2008,09,30,01,40,15.80
2008,09,30,01,41,15.70
2008,09,30,01,42,15.70
2008,09,30,01,43,15.70
2008,09,30,01,44,15.80
2008,09,30,01,45,15.80
2008,09,30,01,46,15.90
2008,09,30,01,47,15.90
2008,09,30,01,48,16.00
2008,09,30,01,49,16.00
2008,09,30,01,50,16.00
2008,09,30,01,51,16.10
2008,09,30,01,52,16.10
2008,09,30,01,53,16.10
2008,09,30,01,54,16.20
2008,09,30,01,55,16.20
2008,09,30,01,56,16.20
2008,09,30,01,57,16.30
2008,09,30,01,58,16.30
2008,09,30,01,59,16.30
2008,09,30,02,00,16.30
2008,09,30,02,01,16.30
2008,09,30,02,02,16.30
2008,09,30,02,03,16.30
2008,09,30,02,04,16.30
2008,09,30,02,05,16.30
2008,09,30,02,06,16.30
2008,09,30,02,07,16.30
2008,09,30,02,08,16.30
2008,09,30,02,09,16.30
2008,09,30,02,10,16.40
2008,09,30,02,11,16.40
2008,09,30,02,12,16.50
2008,09,30,02,13,16.40
2008,09,30,02,14,16.50
2008,09,30,02,15,16.40
2008,09,30,02,16,16.40
2008,09,30,02,17,16.40
2008,09,30,02,18,16.30
2008,09,30,02,19,16.20
2008,09,30,02,20,16.20
2008,09,30,02,21,16.10
2008,09,30,02,22,16.10
2008,09,30,02,23,16.00
2008,09,30,02,24,16.00
2008,09,30,02,25,15.90
2008,09,30,02,26,16.00
2008,09,30,02,27,16.00
2008,09,30,02,28,16.10
2008,09,30,02,29,16.10
2008,09,30,02,30,16.20
2008,09,30,02,31,16.20
2008,09,30,02,32,16.20
2008,09,30,02,33,16.20
2008,09,30,02,34,16.10
2008,09,30,02,35,16.00
2008,09,30,02,36,15.90
2008,09,30,02,37,15.80
2008,09,30,02,38,15.70
2008,09,30,02,39,15.60
2008,09,30,02,40,15.50
2008,09,30,02,41,15.40
2008,09,30,02,42,15.40
2008,09,30,02,43,15.30
2008,09,30,02,44,15.30
2008,09,30,02,45,15.30
2008,09,30,02,46,15.30
2008,09,30,02,47,15.30
2008,09,30,02,48,15.30
2008,09,30,02,49,15.30
2008,09,30,02,50,15.30
2008,09,30,02,51,15.20
2008,09,30,02,52,15.20
2008,09,30,02,53,15.10
2008,09,30,02,54,15.00
2008,09,30,02,55,15.00
2008,09,30,02,56,15.00
2008,09,30,02,57,15.00
2008,09,30,02,58,15.00
2008,09,30,02,59,14.90
2008,09,30,03,00,14.90
2008,09,30,03,01,14.80
2008,09,30,03,02,14.80
2008,09,30,03,03,14.80
2008,09,30,03,04,14.90
2008,09,30,03,05,15.00
2008,09,30,03,06,15.00
2008,09,30,03,07,15.00
2008,09,30,03,08,15.10
2008,09,30,03,09,15.10
2008,09,30,03,10,15.20
2008,09,30,03,11,15.10
2008,09,30,03,12,15.10
2008,09,30,03,13,15.00
2008,09,30,03,14,15.00
2008,09,30,03,15,15.00
2008,09,30,03,16,14.90
2008,09,30,03,17,14.80
2008,09,30,03,18,14.70
2008,09,30,03,19,14.60
2008,09,30,03,20,14.50
2008,09,30,03,21,14.40
2008,09,30,03,22,14.40
2008,09,30,03,23,14.30
2008,09,30,03,24,14.30
2008,09,30,03,25,14.20
2008,09,30,03,26,14.20
2008,09,30,03,27,14.20
2008,09,30,03,28,14.10
2008,09,30,03,29,14.10
2008,09,30,03,30,14.10
2008,09,30,03,31,14.00
2008,09,30,03,32,13.90
2008,09,30,03,33,13.90
2008,09,30,03,34,13.90
2008,09,30,03,35,13.90
2008,09,30,03,36,13.80
2008,09,30,03,37,13.80
2008,09,30,03,38,13.80
2008,09,30,03,39,13.80
2008,09,30,03,40,13.70
2008,09,30,03,41,13.70
2008,09,30,03,42,13.70
2008,09,30,03,43,13.70
2008,09,30,03,44,13.70
2008,09,30,03,45,13.70
2008,09,30,03,46,13.60
2008,09,30,03,47,13.60
2008,09,30,03,48,13.60
2008,09,30,03,49,13.60
2008,09,30,03,50,13.50
2008,09,30,03,51,13.50
2008,09,30,03,52,13.40
2008,09,30,03,53,13.40
2008,09,30,03,54,13.40
2008,09,30,03,55,13.40
2008,09,30,03,56,13.40
2008,09,30,03,57,13.30
2008,09,30,03,58,13.30
2008,09,30,03,59,13.30
2008,09,30,04,00,13.30
2008,09,30,04,01,13.30
2008,09,30,04,02,13.30
2008,09,30,04,03,13.20
2008,09,30,04,04,13.20
2008,09,30,04,05,13.20
2008,09,30,04,06,13.10
2008,09,30,04,07,13.10
2008,09,30,04,08,13.00
2008,09,30,04,09,13.00
2008,09,30,04,10,13.00
2008,09,30,04,11,12.90
2008,09,30,04,12,12.90
2008,09,30,04,13,12.90
2008,09,30,04,14,12.80
2008,09,30,04,15,12.80
2008,09,30,04,16,12.80
2008,09,30,04,17,12.80
2008,09,30,04,18,12.70
2008,09,30,04,19,12.70
2008,09,30,04,20,12.60
2008,09,30,04,21,12.60
2008,09,30,04,22,12.60
2008,09,30,04,23,12.60
2008,09,30,04,24,12.60
2008,09,30,04,25,12.50
2008,09,30,04,26,12.50
2008,09,30,04,27,12.50
2008,09,30,04,28,12.50
2008,09,30,04,29,12.50
2008,09,30,04,30,12.40
2008,09,30,04,31,12.40
2008,09,30,04,32,12.50
2008,09,30,04,33,12.50
2008,09,30,04,34,12.50
2008,09,30,04,35,12.50
2008,09,30,04,36,12.50
2008,09,30,04,37,12.50
2008,09,30,04,38,12.50
2008,09,30,04,39,12.50
2008,09,30,04,40,12.40
2008,09,30,04,41,12.40
2008,09,30,04,42,12.40
2008,09,30,04,43,12.40
2008,09,30,04,44,12.40
2008,09,30,04,45,12.40
2008,09,30,04,46,12.30
2008,09,30,04,47,12.30
2008,09,30,04,48,12.30
2008,09,30,04,49,12.30
2008,09,30,04,50,12.30
2008,09,30,04,51,12.30
2008,09,30,04,52,12.30
2008,09,30,04,53,12.30
2008,09,30,04,54,12.30
2008,09,30,04,55,12.30
2008,09,30,04,56,12.30
2008,09,30,04,57,12.30
2008,09,30,04,58,12.30
2008,09,30,04,59,12.30
2008,09,30,05,00,12.30
2008,09,30,05,01,12.20
2008,09,30,05,02,12.30
2008,09,30,05,03,12.20
2008,09,30,05,04,12.30
2008,09,30,05,05,12.20
2008,09,30,05,06,12.20
2008,09,30,05,07,12.20
2008,09,30,05,08,12.20
2008,09,30,05,09,12.20
2008,09,30,05,10,12.20
2008,09,30,05,11,12.20
2008,09,30,05,12,12.20
2008,09,30,05,13,12.20
2008,09,30,05,14,12.20
2008,09,30,05,15,12.10
2008,09,30,05,16,12.10
2008,09,30,05,17,12.10
2008,09,30,05,18,12.10
2008,09,30,05,19,12.00
2008,09,30,05,20,12.00
2008,09,30,05,21,12.00
2008,09,30,05,22,11.90
2008,09,30,05,23,11.90
2008,09,30,05,24,11.90
2008,09,30,05,25,11.90
2008,09,30,05,26,11.90
2008,09,30,05,27,11.90
2008,09,30,05,28,11.90
2008,09,30,05,29,11.90
2008,09,30,05,30,11.90
2008,09,30,05,31,11.90
2008,09,30,05,32,11.90
2008,09,30,05,33,11.90
2008,09,30,05,34,11.90
2008,09,30,05,35,11.80
2008,09,30,05,36,11.80
2008,09,30,05,37,11.80
2008,09,30,05,38,11.70
2008,09,30,05,39,11.70
2008,09,30,05,40,11.60
2008,09,30,05,41,11.60
2008,09,30,05,42,11.60
2008,09,30,05,43,11.60
2008,09,30,05,44,11.50
2008,09,30,05,45,11.50
2008,09,30,05,46,11.50
2008,09,30,05,47,11.50
2008,09,30,05,48,11.50
2008,09,30,05,49,11.60
2008,09,30,05,50,11.60
2008,09,30,05,51,11.60
2008,09,30,05,52,11.60
2008,09,30,05,53,11.60
2008,09,30,05,54,11.60
2008,09,30,05,55,11.60
2008,09,30,05,56,11.50
2008,09,30,05,57,11.50
2008,09,30,05,58,11.40
2008,09,30,05,59,11.40
2008,09,30,06,00,11.40
2008,09,30,06,01,11.50
2008,09,30,06,02,11.50
2008,09,30,06,03,11.60
2008,09,30,06,04,11.60
2008,09,30,06,05,11.70
2008,09,30,06,06,11.70
2008,09,30,06,07,11.80
2008,09,30,06,08,11.80
2008,09,30,06,09,11.80
2008,09,30,06,10,11.90
2008,09,30,06,11,11.90
2008,09,30,06,12,11.90
2008,09,30,06,13,11.90
2008,09,30,06,14,11.90
2008,09,30,06,15,11.90
2008,09,30,06,16,11.90
2008,09,30,06,17,11.90
2008,09,30,06,18,11.90
2008,09,30,06,19,11.90
2008,09,30,06,20,12.00
2008,09,30,06,21,12.00
2008,09,30,06,22,12.00
2008,09,30,06,23,12.10
2008,09,30,06,24,12.10
2008,09,30,06,25,12.10
2008,09,30,06,26,12.10
2008,09,30,06,27,12.10
2008,09,30,06,28,12.00
2008,09,30,06,29,12.00
2008,09,30,06,30,11.90
2008,09,30,06,31,11.80
2008,09,30,06,32,11.70
2008,09,30,06,33,11.70
2008,09,30,06,34,11.60
2008,09,30,06,35,11.60
2008,09,30,06,36,11.50
2008,09,30,06,37,11.50
2008,09,30,06,38,11.40
2008,09,30,06,39,11.40
2008,09,30,06,40,11.30
2008,09,30,06,41,11.30
2008,09,30,06,42,11.20
2008,09,30,06,43,11.20
2008,09,30,06,44,11.20
2008,09,30,06,45,11.20
2008,09,30,06,46,11.20
2008,09,30,06,47,11.30
2008,09,30,06,48,11.30
2008,09,30,06,49,11.30
2008,09,30,06,50,11.30
2008,09,30,06,51,11.30
2008,09,30,06,52,11.30
2008,09,30,06,53,11.30
2008,09,30,06,54,11.30
2008,09,30,06,55,11.30
2008,09,30,06,56,11.30
2008,09,30,06,57,11.30
2008,09,30,06,58,11.30
2008,09,30,06,59,11.30
2008,09,30,07,00,11.30
2008,09,30,07,01,11.30
2008,09,30,07,02,11.30
2008,09,30,07,03,11.20
2008,09,30,07,04,11.20
2008,09,30,07,05,11.20
2008,09,30,07,06,11.20
2008,09,30,07,07,11.20
2008,09,30,07,08,11.20
2008,09,30,07,09,11.20
2008,09,30,07,10,11.20
2008,09,30,07,11,11.20
2008,09,30,07,12,11.20
2008,09,30,07,13,11.20
2008,09,30,07,14,11.20
2008,09,30,07,15,11.20
2008,09,30,07,16,11.20
2008,09,30,07,17,11.20
2008,09,30,07,18,11.20
2008,09,30,07,19,11.20
2008,09,30,07,20,11.10
2008,09,30,07,21,11.10
2008,09,30,07,22,11.10
2008,09,30,07,23,11.10
2008,09,30,07,24,11.10
2008,09,30,07,25,11.10
2008,09,30,07,26,11.10
2008,09,30,07,27,11.10
2008,09,30,07,28,11.10
2008,09,30,07,29,11.10
2008,09,30,07,30,11.10
2008,09,30,07,31,11.10
2008,09,30,07,32,11.10
2008,09,30,07,33,11.20
2008,09,30,07,34,11.20
2008,09,30,07,35,11.20
2008,09,30,07,36,11.20
2008,09,30,07,37,11.20
2008,09,30,07,38,11.20
2008,09,30,07,39,11.20
2008,09,30,07,40,11.20
2008,09,30,07,41,11.20
2008,09,30,07,42,11.10
2008,09,30,07,43,11.10
2008,09,30,07,44,11.10
2008,09,30,07,45,11.10
2008,09,30,07,46,11.10
2008,09,30,07,47,11.00
2008,09,30,07,48,11.00
2008,09,30,07,49,11.00
2008,09,30,07,50,10.90
2008,09,30,07,51,10.90
2008,09,30,07,52,10.90
2008,09,30,07,53,10.90
2008,09,30,07,54,10.90
2008,09,30,07,55,10.80
2008,09,30,07,56,10.80
2008,09,30,07,57,10.80
2008,09,30,07,58,10.80
2008,09,30,07,59,10.80
2008,09,30,08,00,10.80
2008,09,30,08,01,10.80
2008,09,30,08,02,10.80
2008,09,30,08,03,10.90
2008,09,30,08,04,11.00
2008,09,30,08,05,11.10
2008,09,30,08,06,11.20
2008,09,30,08,07,11.30
2008,09,30,08,08,11.40
2008,09,30,08,09,11.40
2008,09,30,08,10,11.40
2008,09,30,08,11,11.40
2008,09,30,08,12,11.40
2008,09,30,08,13,11.40
2008,09,30,08,14,11.40
2008,09,30,08,15,11.40
2008,09,30,08,16,11.40
2008,09,30,08,17,11.40
2008,09,30,08,18,11.40
2008,09,30,08,19,11.40
2008,09,30,08,20,11.40
2008,09,30,08,21,11.40
2008,09,30,08,22,11.40
2008,09,30,08,23,11.40
2008,09,30,08,24,11.40
2008,09,30,08,25,11.40
2008,09,30,08,26,11.40
2008,09,30,08,27,11.50
2008,09,30,08,28,11.50
2008,09,30,08,29,11.50
2008,09,30,08,30,11.50
2008,09,30,08,31,11.60
2008,09,30,08,32,11.60
2008,09,30,08,33,11.60
2008,09,30,08,34,11.60
2008,09,30,08,35,11.70
2008,09,30,08,36,11.70
2008,09,30,08,37,11.70
2008,09,30,08,38,11.80
2008,09,30,08,39,11.80
2008,09,30,08,40,11.80
2008,09,30,08,41,11.80
2008,09,30,08,42,11.80
2008,09,30,08,43,11.90
2008,09,30,08,44,12.00
2008,09,30,08,45,12.00
2008,09,30,08,46,12.00
2008,09,30,08,47,12.10
2008,09,30,08,48,12.10
2008,09,30,08,49,12.10
2008,09,30,08,50,12.20
2008,09,30,08,51,12.20
2008,09,30,08,52,12.20
2008,09,30,08,53,12.20
2008,09,30,08,54,12.20
2008,09,30,08,55,12.20
2008,09,30,08,56,12.30
2008,09,30,08,57,12.30
2008,09,30,08,58,12.30
2008,09,30,08,59,12.30
2008,09,30,09,00,12.30
2008,09,30,09,01,12.30
2008,09,30,09,02,12.30
2008,09,30,09,03,12.30
2008,09,30,09,04,12.30
2008,09,30,09,05,12.40
2008,09,30,09,06,12.40
2008,09,30,09,07,12.40
2008,09,30,09,08,12.50
2008,09,30,09,09,12.60
2008,09,30,09,10,12.60
2008,09,30,09,11,12.60
2008,09,30,09,12,12.70
2008,09,30,09,13,12.70
2008,09,30,09,14,12.80
2008,09,30,09,15,12.80
2008,09,30,09,16,12.90
2008,09,30,09,17,12.90
2008,09,30,09,18,12.90
2008,09,30,09,19,13.00
2008,09,30,09,20,13.00
2008,09,30,09,21,13.10
2008,09,30,09,22,13.10
2008,09,30,09,23,13.10
2008,09,30,09,24,13.20
2008,09,30,09,25,13.20
2008,09,30,09,26,13.20
2008,09,30,09,27,13.30
2008,09,30,09,28,13.30
2008,09,30,09,29,13.30
2008,09,30,09,30,13.40
2008,09,30,09,31,13.50
2008,09,30,09,32,13.60
2008,09,30,09,33,13.70
2008,09,30,09,34,13.80
2008,09,30,09,35,13.90
2008,09,30,09,36,13.90
2008,09,30,09,37,14.00
2008,09,30,09,38,14.10
2008,09,30,09,39,14.20
2008,09,30,09,40,14.30
2008,09,30,09,41,14.40
2008,09,30,09,42,14.40
2008,09,30,09,43,14.50
2008,09,30,09,44,14.70
2008,09,30,09,45,14.80
2008,09,30,09,46,14.90
2008,09,30,09,47,15.00
2008,09,30,09,48,15.00
2008,09,30,09,49,15.00
2008,09,30,09,50,15.00
2008,09,30,09,51,15.00
2008,09,30,09,52,15.00
2008,09,30,09,53,15.10
2008,09,30,09,54,15.20
2008,09,30,09,55,15.30
2008,09,30,09,56,15.40
2008,09,30,09,57,15.50
2008,09,30,09,58,15.70
2008,09,30,09,59,15.80
2008,09,30,10,00,15.80
2008,09,30,10,01,15.90
2008,09,30,10,02,16.00
2008,09,30,10,03,16.00
2008,09,30,10,04,16.10
2008,09,30,10,05,16.10
2008,09,30,10,06,16.20
2008,09,30,10,07,16.20
2008,09,30,10,08,16.30
2008,09,30,10,09,16.30
2008,09,30,10,10,16.30
2008,09,30,10,11,16.40
2008,09,30,10,12,16.40
2008,09,30,10,13,16.50
2008,09,30,10,14,16.60
2008,09,30,10,15,16.60
2008,09,30,10,16,16.70
2008,09,30,10,17,16.80
2008,09,30,10,18,16.80
2008,09,30,10,19,16.90
2008,09,30,10,20,16.90
2008,09,30,10,21,17.00
2008,09,30,10,22,17.00
2008,09,30,10,23,17.10
2008,09,30,10,24,17.10
2008,09,30,10,25,17.10
2008,09,30,10,26,17.20
2008,09,30,10,27,17.20
2008,09,30,10,28,17.20
2008,09,30,10,29,17.20
2008,09,30,10,30,17.30
2008,09,30,10,31,17.30
2008,09,30,10,32,17.30
2008,09,30,10,33,17.40
2008,09,30,10,34,17.50
2008,09,30,10,35,17.50
2008,09,30,10,36,17.60
2008,09,30,10,37,17.70
2008,09,30,10,38,17.80
2008,09,30,10,39,17.80
2008,09,30,10,40,17.90
2008,09,30,10,41,17.90
2008,09,30,10,42,18.00
2008,09,30,10,43,18.00
2008,09,30,10,44,18.10
2008,09,30,10,45,18.10
2008,09,30,10,46,18.10
2008,09,30,10,47,18.20
2008,09,30,10,48,18.20
2008,09,30,10,49,18.30
2008,09,30,10,50,18.30
2008,09,30,10,51,18.30
2008,09,30,10,52,18.40
2008,09,30,10,53,18.40
2008,09,30,10,54,18.50
2008,09,30,10,55,18.50
2008,09,30,10,56,18.60
2008,09,30,10,57,18.60
2008,09,30,10,58,18.60
2008,09,30,10,59,18.70
2008,09,30,11,00,18.70
2008,09,30,11,01,18.70
2008,09,30,11,02,18.70
2008,09,30,11,03,18.70
2008,09,30,11,04,18.70
2008,09,30,11,05,18.60
2008,09,30,11,06,18.60
2008,09,30,11,07,18.50
2008,09,30,11,08,18.50
2008,09,30,11,09,18.40
2008,09,30,11,10,18.40
2008,09,30,11,11,18.30
2008,09,30,11,12,18.30
2008,09,30,11,13,18.30
2008,09,30,11,14,18.30
2008,09,30,11,15,18.30
2008,09,30,11,16,18.30
2008,09,30,11,17,18.30
2008,09,30,11,18,18.30
2008,09,30,11,19,18.40
2008,09,30,11,20,18.40
2008,09,30,11,21,18.50
2008,09,30,11,22,18.60
2008,09,30,11,23,18.70
2008,09,30,11,24,18.70
2008,09,30,11,25,18.70
2008,09,30,11,26,18.80
2008,09,30,11,27,18.80
2008,09,30,11,28,18.80
2008,09,30,11,29,18.80
2008,09,30,11,30,18.80
2008,09,30,11,31,18.80
2008,09,30,11,32,18.80
2008,09,30,11,33,18.80
2008,09,30,11,34,18.90
2008,09,30,11,35,18.90
2008,09,30,11,36,19.00
2008,09,30,11,37,19.00
2008,09,30,11,38,19.00
2008,09,30,11,39,19.10
2008,09,30,11,40,19.10
2008,09,30,11,41,19.10
2008,09,30,11,42,19.10
2008,09,30,11,43,19.10
2008,09,30,11,44,19.10
2008,09,30,11,45,19.10
2008,09,30,11,46,19.00
2008,09,30,11,47,19.00
2008,09,30,11,48,18.90
2008,09,30,11,49,18.90
2008,09,30,11,50,18.80
2008,09,30,11,51,18.80
2008,09,30,11,52,18.80
2008,09,30,11,53,18.70
2008,09,30,11,54,18.70
2008,09,30,11,55,18.70
2008,09,30,11,56,18.70
2008,09,30,11,57,18.70
2008,09,30,11,58,18.70
2008,09,30,11,59,18.70
2008,09,30,12,00,18.70
2008,09,30,12,01,18.70
2008,09,30,12,02,18.70
2008,09,30,12,03,18.70
2008,09,30,12,04,18.70
2008,09,30,12,05,18.70
2008,09,30,12,06,18.70
2008,09,30,12,07,18.70
2008,09,30,12,08,18.80
2008,09,30,12,09,18.80
2008,09,30,12,10,18.80
2008,09,30,12,11,18.80
2008,09,30,12,12,18.80
2008,09,30,12,13,18.70
2008,09,30,12,14,18.60
2008,09,30,12,15,18.60
2008,09,30,12,16,18.60
2008,09,30,12,17,18.60
2008,09,30,12,18,18.50
2008,09,30,12,19,18.50
2008,09,30,12,20,18.50
2008,09,30,12,21,18.40
2008,09,30,12,22,18.40
2008,09,30,12,23,18.40
2008,09,30,12,24,18.50
2008,09,30,12,25,18.60
2008,09,30,12,26,18.60
2008,09,30,12,27,18.60
2008,09,30,12,28,18.70
2008,09,30,12,29,18.70
2008,09,30,12,30,18.80
2008,09,30,12,31,18.80
2008,09,30,12,32,18.90
2008,09,30,12,33,18.90
2008,09,30,12,34,19.00
2008,09,30,12,35,19.10
2008,09,30,12,36,19.10
2008,09,30,12,37,19.10
2008,09,30,12,38,19.20
2008,09,30,12,39,19.20
2008,09,30,12,40,19.20
2008,09,30,12,41,19.10
2008,09,30,12,42,18.90
2008,09,30,12,43,18.80
2008,09,30,12,44,18.70
2008,09,30,12,45,18.70
2008,09,30,12,46,18.70
2008,09,30,12,47,18.60
2008,09,30,12,48,18.50
2008,09,30,12,49,18.40
2008,09,30,12,50,18.30
2008,09,30,12,51,18.20
2008,09,30,12,52,18.20
2008,09,30,12,53,18.20
2008,09,30,12,54,18.10
2008,09,30,12,55,18.10
2008,09,30,12,56,18.10
2008,09,30,12,57,18.10
2008,09,30,12,58,18.20
2008,09,30,12,59,18.20
2008,09,30,13,00,18.30
2008,09,30,13,01,18.30
2008,09,30,13,02,18.40
2008,09,30,13,03,18.40
2008,09,30,13,04,18.50
2008,09,30,13,05,18.60
2008,09,30,13,06,18.70
2008,09,30,13,07,18.80
2008,09,30,13,08,18.90
2008,09,30,13,09,19.00
2008,09,30,13,10,19.00
2008,09,30,13,11,19.10
2008,09,30,13,12,19.20
2008,09,30,13,13,19.20
2008,09,30,13,14,19.20
2008,09,30,13,15,19.20
2008,09,30,13,16,19.20
2008,09,30,13,17,19.20
2008,09,30,13,18,19.20
2008,09,30,13,19,19.20
2008,09,30,13,20,19.20
2008,09,30,13,21,19.20
2008,09,30,13,22,19.20
2008,09,30,13,23,19.20
2008,09,30,13,24,19.20
2008,09,30,13,25,19.20
2008,09,30,13,26,19.20
2008,09,30,13,27,19.20
2008,09,30,13,28,19.30
2008,09,30,13,29,19.30
2008,09,30,13,30,19.30
2008,09,30,13,31,19.40
2008,09,30,13,32,19.40
2008,09,30,13,33,19.50
2008,09,30,13,34,19.50
2008,09,30,13,35,19.50
2008,09,30,13,36,19.60
2008,09,30,13,37,19.60
2008,09,30,13,38,19.60
2008,09,30,13,39,19.70
2008,09,30,13,40,19.70
2008,09,30,13,41,19.80
2008,09,30,13,42,19.80
2008,09,30,13,43,19.90
2008,09,30,13,44,20.00
2008,09,30,13,45,20.10
2008,09,30,13,46,20.10
2008,09,30,13,47,20.10
2008,09,30,13,48,20.00
2008,09,30,13,49,19.80
2008,09,30,13,50,19.70
2008,09,30,13,51,19.60
2008,09,30,13,52,19.50
2008,09,30,13,53,19.50
2008,09,30,13,54,19.40
2008,09,30,13,55,19.40
2008,09,30,13,56,19.40
2008,09,30,13,57,19.40
2008,09,30,13,58,19.40
2008,09,30,13,59,19.40
2008,09,30,14,00,19.40
2008,09,30,14,01,19.50
2008,09,30,14,02,19.40
2008,09,30,14,03,19.40
2008,09,30,14,04,19.30
2008,09,30,14,05,19.30
2008,09,30,14,06,19.20
2008,09,30,14,07,19.10
2008,09,30,14,08,19.10
2008,09,30,14,09,19.00
2008,09,30,14,10,19.00
2008,09,30,14,11,19.00
2008,09,30,14,12,19.00
2008,09,30,14,13,19.00
2008,09,30,14,14,19.00
2008,09,30,14,15,19.00
2008,09,30,14,16,19.00
2008,09,30,14,17,19.00
2008,09,30,14,18,19.00
2008,09,30,14,19,19.10
2008,09,30,14,20,19.10
2008,09,30,14,21,19.10
2008,09,30,14,22,19.10
2008,09,30,14,23,19.10
2008,09,30,14,24,19.10
2008,09,30,14,25,19.20
2008,09,30,14,26,19.20
2008,09,30,14,27,19.30
2008,09,30,14,28,19.30
2008,09,30,14,29,19.30
2008,09,30,14,30,19.40
2008,09,30,14,31,19.40
2008,09,30,14,32,19.50
2008,09,30,14,33,19.50
2008,09,30,14,34,19.60
2008,09,30,14,35,19.70
2008,09,30,14,36,19.70
2008,09,30,14,37,19.70
2008,09,30,14,38,19.70
2008,09,30,14,39,19.80
2008,09,30,14,40,19.80
2008,09,30,14,41,19.80
2008,09,30,14,42,19.80
2008,09,30,14,43,19.90
2008,09,30,14,44,20.00
2008,09,30,14,45,20.00
2008,09,30,14,46,20.10
2008,09,30,14,47,20.20
2008,09,30,14,48,20.30
2008,09,30,14,49,20.40
2008,09,30,14,50,20.40
2008,09,30,14,51,20.40
2008,09,30,14,52,20.40
2008,09,30,14,53,20.40
2008,09,30,14,54,20.40
2008,09,30,14,55,20.30
2008,09,30,14,56,20.30
2008,09,30,14,57,20.30
2008,09,30,14,58,20.30
2008,09,30,14,59,20.20
2008,09,30,15,00,20.20
2008,09,30,15,01,20.20
2008,09,30,15,02,20.20
2008,09,30,15,03,20.20
2008,09,30,15,04,20.20
2008,09,30,15,05,20.10
2008,09,30,15,06,20.10
2008,09,30,15,07,20.10
2008,09,30,15,08,20.10
2008,09,30,15,09,20.10
2008,09,30,15,10,20.10
2008,09,30,15,11,20.00
2008,09,30,15,12,20.00
2008,09,30,15,13,20.00
2008,09,30,15,14,19.90
2008,09,30,15,15,19.80
2008,09,30,15,16,19.80
2008,09,30,15,17,19.80
2008,09,30,15,18,19.80
2008,09,30,15,19,19.80
2008,09,30,15,20,19.80
2008,09,30,15,21,19.80
2008,09,30,15,22,19.80
2008,09,30,15,23,19.80
2008,09,30,15,24,19.80
2008,09,30,15,25,19.80
2008,09,30,15,26,19.80
2008,09,30,15,27,19.80
2008,09,30,15,28,19.80
2008,09,30,15,29,19.80
2008,09,30,15,30,19.80
2008,09,30,15,31,19.80
2008,09,30,15,32,19.80
2008,09,30,15,33,19.90
2008,09,30,15,34,19.90
2008,09,30,15,35,19.90
2008,09,30,15,36,19.90
2008,09,30,15,37,20.00
2008,09,30,15,38,20.00
2008,09,30,15,39,20.00
2008,09,30,15,40,20.00
2008,09,30,15,41,20.00
2008,09,30,15,42,20.10
2008,09,30,15,43,20.10
2008,09,30,15,44,20.10
2008,09,30,15,45,20.20
2008,09,30,15,46,20.20
2008,09,30,15,47,20.20
2008,09,30,15,48,20.30
2008,09,30,15,49,20.30
2008,09,30,15,50,20.30
2008,09,30,15,51,20.30
2008,09,30,15,52,20.30
2008,09,30,15,53,20.30
2008,09,30,15,54,20.30
2008,09,30,15,55,20.40
2008,09,30,15,56,20.40
2008,09,30,15,57,20.40
2008,09,30,15,58,20.40
2008,09,30,15,59,20.40
2008,09,30,16,00,20.40
2008,09,30,16,01,20.40
2008,09,30,16,02,20.30
2008,09,30,16,03,20.30
2008,09,30,16,04,20.30
2008,09,30,16,05,20.30
2008,09,30,16,06,20.30
2008,09,30,16,07,20.40
2008,09,30,16,08,20.40
2008,09,30,16,09,20.40
2008,09,30,16,10,20.40
2008,09,30,16,11,20.30
2008,09,30,16,12,20.20
2008,09,30,16,13,20.10
2008,09,30,16,14,20.10
2008,09,30,16,15,20.00
2008,09,30,16,16,19.90
2008,09,30,16,17,19.90
2008,09,30,16,18,19.80
2008,09,30,16,19,19.80
2008,09,30,16,20,19.80
2008,09,30,16,21,19.70
2008,09,30,16,22,19.70
2008,09,30,16,23,19.60
2008,09,30,16,24,19.60
2008,09,30,16,25,19.50
2008,09,30,16,26,19.50
2008,09,30,16,27,19.40
2008,09,30,16,28,19.40
2008,09,30,16,29,19.40
2008,09,30,16,30,19.40
2008,09,30,16,31,19.30
2008,09,30,16,32,19.30
2008,09,30,16,33,19.30
2008,09,30,16,34,19.30
2008,09,30,16,35,19.30
2008,09,30,16,36,19.30
2008,09,30,16,37,19.20
2008,09,30,16,38,19.20
2008,09,30,16,39,19.20
2008,09,30,16,40,19.20
2008,09,30,16,41,19.10
2008,09,30,16,42,19.10
2008,09,30,16,43,19.10
2008,09,30,16,44,19.10
2008,09,30,16,45,19.00
2008,09,30,16,46,19.00
2008,09,30,16,47,18.90
2008,09,30,16,48,18.90
2008,09,30,16,49,18.90
2008,09,30,16,50,18.90
2008,09,30,16,51,18.90
2008,09,30,16,52,18.90
2008,09,30,16,53,18.80
2008,09,30,16,54,18.80
2008,09,30,16,55,18.80
2008,09,30,16,56,18.80
2008,09,30,16,57,18.80
2008,09,30,16,58,18.80
2008,09,30,16,59,18.80
2008,09,30,17,00,18.80
2008,09,30,17,01,18.80
2008,09,30,17,02,18.80
2008,09,30,17,03,18.80
2008,09,30,17,04,18.80
2008,09,30,17,05,18.70
2008,09,30,17,06,18.70
2008,09,30,17,07,18.70
2008,09,30,17,08,18.70
2008,09,30,17,09,18.70
2008,09,30,17,10,18.70
2008,09,30,17,11,18.70
2008,09,30,17,12,18.70
2008,09,30,17,13,18.60
2008,09,30,17,14,18.60
2008,09,30,17,15,18.60
2008,09,30,17,16,18.60
2008,09,30,17,17,18.60
2008,09,30,17,18,18.50
2008,09,30,17,19,18.50